Location: ???? ??
(36.0534°N, 43.5630°E)
Time: 05:43:05
(UTC+00:00)

IRS-1A Rocket - Pass Details

Date: 18 September 2019
Orbit: 852 x 931 km, 99.2° (Epoch: 20 October)

Event Time Altitude Azimuth Distance (km) Brightness Sun altitude
Rises 15:52:17 0° 152° (SSE) 3,528 7.1 -9.5°
Reaches altitude 10° 15:54:44 10° 148° (SSE) 2,580 6.3 -10.0°
Maximum altitude 16:00:20 55° 72° (ENE) 1,063 4.4 -11.1°
Drops below altitude 10° 16:05:50 10° 356° (N) 2,542 6.9 -12.2°
Sets 16:08:14 0° 352° (N) 3,473 7.7 -12.6°
